Wind_Speed
31 31 32 33 34 36 38 41 42 43 43 43 42 43 43 43 42 40 39 39 40 42 42 42 42 41 39 38 36 32 32 32 33 34 35 35 37 39 39 39 38 36 35
32 33 34 36 38 40 43 45 46 46 45 44 45 44 43 41 39 39 40 41 43 44 46 42 39 32 29 28 27 26 26 28 30 31 33 36 36 37 39 41 41 40 38
33 35 37 40 43 46 48 49 50 50 48 45 43 41 39 38 38 39 42 45 44 40 34 29 25 25 26 25 28 28 31 33 35 38 40 41 39 41 41 42 42 42 41
36 38 41 43 46 49 52 55 55 54 48 43 41 38 37 39 41 44 41 33 26 22 23 25 26 26 26 28 31 34 38 41 43 45 47 46 49 50 48 47 44 44 43
41 43 45 48 50 54 56 56 54 49 43 40 39 39 39 39 42 35 26 23 23 26 28 29 25 27 30 33 36 38 42 45 48 51 51 52 56 58 57 55 49 47 47
45 47 50 53 55 56 52 46 43 42 40 41 41 38 37 38 30 25 24 26 27 29 28 25 27 31 33 35 35 39 45 49 49 51 53 55 56 55 54 50 53 48 52
49 53 56 58 59 52 47 48 46 45 44 41 39 37 34 28 26 26 26 27 27 26 24 27 30 30 30 31 37 44 47 46 50 54 57 61 59 55 51 55 51 51 60
54 58 61 58 50 48 49 49 46 42 41 40 34 30 28 28 27 26 26 25 23 24 25 25 26 26 31 35 41 47 43 46 51 55 56 57 61 59 54 56 63 53 44
61 58 53 52 53 51 51 49 44 39 34 30 29 28 29 28 26 25 25 24 23 25 24 24 26 29 33 37 43 43 41 47 48 46 48 48 50 54 53 54 63 58 46
54 58 58 54 54 51 47 43 38 33 28 27 28 28 27 27 25 24 23 24 25 27 26 28 30 32 34 38 42 39 41 42 42 40 35 31 37 43 48 48 61 65 35
58 57 52 46 44 43 36 29 28 27 26 26 25 25 24 22 20 22 24 25 28 29 28 29 32 33 34 36 38 35 39 39 34 32 27 19 21 32 38 37 45 64 68
42 38 39 36 31 28 23 22 23 23 22 22 21 18 16 16 18 20 22 23 25 28 30 31 32 34 33 32 32 30 37 33 30 27 25 12 7 19 29 32 35 46 53
37 36 33 31 27 22 19 19 18 19 19 18 16 15 14 14 16 17 19 19 20 21 24 28 28 29 30 29 29 26 34 33 27 25 28 23 11 16 19 27 27 34 38
38 34 34 31 25 20 17 16 16 17 18 18 16 14 13 12 13 15 16 17 17 16 17 22 23 24 27 28 27 25 27 35 29 23 19 29 6 17 25 26 21 28 33
32 31 30 24 20 16 16 15 16 17 19 18 16 15 15 15 15 15 16 16 16 17 16 17 21 22 25 27 28 25 22 27 31 26 22 13 11 6 15 13 12 21 28
29 30 29 26 23 19 17 17 19 18 20 19 17 17 17 17 17 17 17 17 17 17 19 18 20 21 23 25 26 26 23 21 26 29 25 20 13 6 9 10 11 25 26
28 30 30 28 24 23 22 22 21 21 25 21 19 18 18 18 18 19 19 20 20 19 20 21 20 22 24 24 25 26 25 20 19 21 25 23 18 16 14 13 11 16 24
33 33 32 29 26 25 25 25 27 27 29 26 24 23 23 23 23 23 24 23 23 23 22 24 23 22 24 25 25 25 25 25 20 17 17 18 19 18 17 16 17 17 19
36 35 33 30 28 27 28 29 31 33 30 28 29 30 30 29 29 29 28 27 24 23 22 23 25 24 24 25 26 27 27 27 25 22 18 18 20 19 17 16 16 17 19
36 34 33 32 31 30 30 34 35 37 36 34 32 33 34 34 35 35 34 33 29 27 27 27 28 28 28 28 28 29 29 29 29 27 25 20 19 21 22 19 17 16 18
34 31 34 36 34 32 33 35 36 34 37 39 40 37 35 36 37 37 37 37 35 33 32 31 30 31 32 33 31 31 32 32 32 30 29 28 23 20 23 23 24 22 20
35 33 31 39 41 40 40 40 38 39 41 40 41 42 41 39 39 38 39 39 39 38 36 35 34 35 36 36 36 35 34 35 36 37 35 33 29 27 23 23 25 25 25
36 35 33 32 40 44 45 45 44 43 42 45 46 46 44 43 42 42 42 41 41 41 42 42 40 40 39 40 39 38 38 38 38 39 39 38 37 32 29 28 27 26 27
37 36 36 35 32 35 41 43 43 44 46 49 49 50 47 45 46 46 46 45 46 46 48 47 46 45 44 43 41 41 41 42 43 42 41 41 41 37 34 32 30 31 31
38 36 36 36 38 38 39 41 41 41 40 40 46 49 49 49 51 51 49 48 49 50 53 50 48 47 48 47 45 44 46 47 48 46 45 41 41 39 37 35 35 35 34
39 41 40 40 39 39 40 41 43 43 39 39 43 48 51 52 54 54 53 52 50 53 56 53 51 50 51 51 51 51 51 52 53 51 47 42 38 36 37 37 37 38 40
Wind_Direction
295 293 294 295 297 298 298 298 298 297 296 292 290 289 290 291 291 290 290 290 291 291 291 290 288 287 285 284 282 280 279 279 277 275 275 273 271 268 264 260 259 259 256
294 293 293 294 295 296 296 297 298 297 297 295 291 291 292 291 290 290 291 292 293 291 289 287 287 283 277 276 276 278 281 284 286 285 286 283 282 273 267 262 259 257 257
291 291 292 293 295 296 296 296 297 298 299 297 294 291 291 290 290 291 293 293 291 288 287 283 281 279 277 276 276 278 283 285 285 286 286 283 282 284 276 264 258 256 254
289 290 291 292 294 294 295 296 298 300 299 295 293 291 290 290 293 296 295 291 288 283 280 280 279 277 274 280 283 285 286 286 286 282 280 281 277 273 274 271 258 253 252
289 289 290 292 294 296 299 300 299 297 294 291 289 290 292 294 298 294 287 281 279 279 281 279 276 277 279 283 284 287 288 287 284 282 280 276 275 272 269 266 259 251 248
289 290 293 295 301 302 299 299 300 297 293 291 291 292 293 296 289 279 279 280 281 279 277 272 279 283 282 284 289 293 293 289 284 282 279 277 274 269 260 253 250 249 248
291 294 299 300 301 300 298 300 298 295 293 290 290 291 293 288 277 277 280 279 278 273 272 277 282 283 289 294 299 300 295 290 290 287 283 277 267 256 252 242 234 251 249
297 297 298 299 299 298 297 295 295 293 291 290 288 288 284 278 275 276 278 278 273 274 276 280 281 286 292 298 306 308 301 302 298 295 283 278 260 247 242 236 227 242 236
297 300 299 297 296 294 292 294 292 288 286 283 281 280 279 273 271 274 278 277 276 277 281 278 282 294 301 305 311 311 310 310 309 301 298 281 254 243 236 239 231 226 230
299 299 298 296 294 295 294 293 288 282 274 273 277 281 279 276 274 275 276 278 281 285 286 286 294 304 309 312 317 315 319 318 318 311 308 288 246 238 233 235 231 232 228
298 298 299 299 297 297 295 289 279 272 271 276 283 282 278 274 277 281 282 281 284 287 293 294 300 307 314 320 324 321 327 331 328 327 323 302 246 234 231 236 235 235 241
305 304 303 303 302 301 294 286 279 276 283 289 287 277 276 279 284 287 290 288 288 290 297 302 305 310 320 328 328 327 334 337 344 359 346 343 270 232 233 242 242 238 244
307 305 303 299 295 292 290 282 282 287 288 287 280 278 283 290 297 301 299 297 294 296 301 303 309 317 326 336 337 333 337 345 351 357 337 312 223 229 242 251 250 241 237
304 302 301 296 296 294 284 279 282 284 284 284 279 275 282 293 300 303 304 304 303 305 310 310 316 326 334 343 343 339 338 341 351 360 356 339 312 250 212 181 232 235 240
301 298 293 293 292 284 275 275 280 284 283 283 281 280 281 287 293 298 303 306 309 314 317 316 322 331 337 346 348 345 340 336 345 351 -0 352 4 351 279 274 215 230 244
300 293 285 287 288 279 264 260 265 270 277 284 284 282 281 285 290 295 301 305 308 314 316 321 323 328 333 342 346 349 346 335 334 342 349 349 334 262 261 281 277 254 252
298 288 284 284 281 274 262 256 255 258 276 279 283 283 283 284 289 294 299 303 307 312 317 320 325 328 330 336 341 343 351 344 330 323 333 339 333 323 290 265 259 260 249
296 287 283 281 277 273 264 257 266 254 275 274 278 281 283 285 288 292 296 301 304 306 310 314 320 324 327 331 335 337 342 347 343 323 306 309 319 314 301 290 271 255 253
300 286 280 276 274 271 266 254 254 264 269 274 276 277 279 282 286 290 293 295 299 302 309 315 318 320 321 325 330 333 336 337 340 341 323 300 289 294 298 286 272 265 261
304 284 272 272 269 268 269 264 263 259 268 271 277 279 277 278 281 285 288 291 292 295 299 305 307 313 318 321 324 326 329 331 332 334 332 324 303 286 278 280 278 269 256
299 298 263 263 268 270 271 270 266 265 262 269 272 277 279 278 279 281 282 285 288 290 294 298 302 306 309 313 317 321 323 324 323 326 327 327 320 306 292 282 271 268 266
297 298 283 261 263 266 269 272 272 268 268 270 268 272 276 278 278 278 280 282 284 287 288 291 295 297 301 305 308 311 314 318 320 317 320 320 320 314 304 291 283 279 268
291 289 288 280 267 266 269 269 268 270 270 269 268 269 269 272 274 275 277 279 282 284 286 288 290 292 295 298 301 304 307 310 313 313 314 314 314 311 306 300 290 283 282
284 282 281 282 282 278 274 274 276 275 272 267 265 264 266 269 271 272 274 276 279 282 283 285 288 290 291 293 294 296 301 304 307 309 308 308 306 305 301 298 293 288 285
282 279 279 279 279 277 277 279 282 281 280 272 264 263 266 268 270 271 272 273 276 279 280 282 283 285 287 288 288 291 296 299 301 303 302 303 299 299 297 293 290 289 286
279 280 279 278 278 279 280 280 281 282 282 278 273 268 266 267 269 272 274 275 276 277 278 281 283 284 285 285 286 287 291 295 294 296 297 294 291 292 295 293 290 286 285
Height
5840 5838 5836 5833 5830 5828 5824 5821 5818 5815 5812 5809 5806 5803 5801 5798 5796 5795 5793 5791 5790 5787 5785 5783 5781 5780 5778 5777 5776 5774 5773 5774 5774 5774 5774 5775 5775 5776 5778 5780 5782 5784 5785
5835 5833 5830 5828 5825 5821 5817 5814 5811 5807 5804 5800 5797 5795 5793 5790 5788 5786 5784 5783 5781 5778 5776 5774 5772 5771 5770 5769 5768 5767 5767 5766 5765 5766 5766 5766 5766 5767 5768 5770 5772 5775 5777
5830 5827 5824 5821 5818 5814 5810 5806 5802 5798 5795 5792 5789 5786 5784 5782 5780 5778 5776 5773 5771 5768 5766 5766 5765 5765 5764 5763 5762 5761 5760 5759 5758 5757 5756 5756 5756 5757 5759 5760 5762 5765 5768
5824 5821 5817 5814 5810 5806 5801 5797 5793 5789 5785 5783 5781 5778 5776 5774 5772 5769 5767 5764 5763 5762 5761 5760 5760 5758 5758 5757 5756 5754 5753 5751 5749 5747 5746 5744 5745 5744 5747 5750 5752 5754 5757
5816 5813 5809 5805 5801 5797 5792 5787 5783 5779 5776 5774 5772 5770 5769 5766 5764 5761 5759 5758 5756 5756 5755 5754 5752 5752 5751 5750 5748 5746 5743 5740 5737 5735 5733 5731 5730 5731 5733 5737 5741 5743 5745
5808 5804 5800 5796 5792 5787 5782 5778 5774 5771 5768 5766 5764 5762 5760 5759 5756 5754 5753 5752 5750 5749 5748 5747 5746 5745 5743 5741 5739 5736 5732 5727 5724 5720 5717 5714 5712 5713 5717 5723 5729 5731 5732
5799 5795 5790 5786 5781 5776 5773 5770 5765 5762 5759 5757 5756 5754 5753 5751 5750 5749 5748 5746 5745 5743 5742 5742 5740 5738 5735 5733 5730 5725 5720 5713 5708 5703 5698 5693 5691 5693 5698 5706 5714 5708 5710
5789 5784 5779 5774 5770 5766 5763 5759 5756 5752 5750 5748 5747 5746 5746 5745 5744 5743 5741 5739 5738 5737 5736 5735 5733 5731 5728 5724 5719 5713 5706 5699 5691 5681 5672 5667 5666 5670 5677 5686 5692 5691 5684
5779 5773 5768 5764 5760 5755 5752 5749 5746 5743 5741 5740 5739 5739 5738 5738 5738 5736 5735 5734 5732 5731 5730 5729 5727 5725 5721 5716 5709 5701 5694 5685 5673 5661 5650 5640 5639 5648 5658 5666 5676 5684 5687
5768 5763 5757 5752 5748 5744 5740 5737 5736 5735 5734 5733 5732 5732 5731 5731 5731 5731 5729 5728 5727 5726 5724 5722 5720 5717 5713 5707 5700 5692 5684 5672 5660 5647 5634 5624 5625 5634 5645 5656 5665 5674 5676
5758 5752 5746 5742 5737 5734 5730 5728 5728 5728 5728 5727 5726 5726 5725 5724 5725 5725 5723 5722 5721 5719 5718 5717 5714 5709 5705 5699 5691 5685 5675 5664 5654 5640 5631 5623 5622 5631 5642 5652 5658 5662 5670
5747 5742 5739 5734 5730 5726 5724 5723 5724 5724 5724 5723 5722 5722 5721 5720 5719 5719 5718 5716 5715 5713 5712 5710 5707 5703 5698 5692 5685 5678 5668 5660 5650 5640 5634 5628 5627 5633 5643 5648 5654 5657 5663
5740 5736 5732 5728 5725 5722 5720 5720 5721 5721 5721 5720 5719 5718 5718 5716 5715 5715 5713 5711 5710 5708 5706 5705 5702 5697 5692 5686 5680 5673 5664 5656 5649 5643 5638 5629 5626 5633 5642 5641 5648 5653 5658
5733 5730 5726 5723 5720 5718 5718 5718 5718 5718 5717 5716 5715 5714 5714 5713 5712 5711 5709 5708 5706 5704 5702 5699 5697 5692 5687 5682 5676 5669 5662 5653 5649 5646 5641 5636 5634 5633 5640 5632 5639 5647 5652
5725 5722 5720 5718 5716 5714 5714 5715 5715 5715 5714 5712 5711 5711 5710 5709 5708 5707 5706 5704 5703 5700 5698 5696 5692 5687 5683 5678 5673 5667 5661 5653 5647 5645 5643 5642 5640 5639 5635 5636 5642 5644 5647
5719 5716 5715 5712 5711 5710 5710 5710 5710 5710 5709 5708 5707 5706 5706 5705 5704 5702 5701 5699 5698 5695 5692 5691 5687 5684 5680 5675 5671 5666 5660 5655 5648 5642 5640 5640 5641 5643 5641 5640 5642 5645 5646
5712 5710 5708 5707 5705 5705 5705 5704 5705 5705 5704 5704 5702 5701 5701 5700 5699 5698 5696 5694 5692 5690 5688 5685 5683 5680 5676 5673 5669 5664 5659 5656 5651 5646 5641 5638 5637 5637 5638 5638 5638 5640 5642
5705 5703 5702 5701 5700 5699 5699 5699 5699 5699 5698 5698 5697 5696 5696 5695 5694 5692 5691 5689 5687 5685 5683 5680 5678 5676 5673 5669 5666 5662 5657 5654 5651 5647 5644 5641 5639 5637 5636 5635 5635 5635 5635
5697 5696 5695 5694 5694 5693 5692 5693 5693 5692 5692 5691 5691 5690 5689 5689 5688 5687 5685 5683 5681 5680 5678 5676 5673 5671 5668 5665 5662 5659 5655 5651 5648 5645 5642 5640 5637 5635 5634 5634 5633 5633 5632
5690 5687 5687 5686 5686 5686 5685 5685 5685 5685 5684 5684 5683 5682 5682 5681 5680 5679 5678 5676 5675 5673 5672 5670 5667 5665 5662 5659 5657 5654 5651 5648 5645 5642 5639 5636 5634 5632 5630 5630 5630 5630 5630
5682 5678 5676 5677 5677 5677 5676 5676 5676 5675 5675 5675 5674 5674 5673 5672 5671 5670 5670 5668 5667 5666 5664 5663 5661 5658 5656 5653 5651 5648 5645 5643 5640 5637 5634 5631 5629 5627 5624 5623 5622 5622 5624
5674 5671 5667 5667 5667 5667 5666 5665 5665 5666 5665 5665 5665 5664 5664 5663 5661 5660 5659 5659 5658 5656 5655 5654 5653 5651 5649 5646 5644 5641 5639 5636 5634 5629 5628 5626 5624 5621 5619 5617 5616 5614 5615
5665 5662 5660 5658 5657 5656 5655 5654 5653 5654 5654 5653 5653 5652 5652 5652 5650 5649 5649 5649 5648 5646 5645 5644 5643 5641 5640 5638 5635 5633 5630 5629 5626 5623 5621 5618 5615 5615 5612 5610 5609 5609 5608
5654 5652 5650 5648 5647 5645 5643 5642 5641 5642 5641 5640 5639 5638 5639 5639 5638 5637 5637 5638 5637 5635 5633 5632 5632 5630 5629 5627 5626 5624 5622 5620 5618 5615 5612 5610 5606 5606 5604 5602 5601 5600 5600
5643 5641 5639 5637 5636 5635 5632 5631 5630 5630 5629 5627 5626 5625 5626 5626 5625 5623 5624 5625 5624 5623 5618 5620 5620 5619 5616 5615 5614 5613 5611 5610 5607 5605 5601 5601 5598 5596 5595 5594 5592 5591 5591
5632 5630 5628 5626 5625 5623 5621 5619 5617 5617 5617 5615 5614 5613 5613 5612 5610 5609 5610 5611 5612 5609 5604 5607 5606 5605 5604 5601 5600 5599 5598 5597 5595 5593 5591 5589 5588 5586 5586 5584 5583 5581 5580